{"data":{"norad_id":59032,"epoch":"2026-09-19T07:06:42.045408Z","epoch_age_seconds":259711,"freshness":"STALE","line1":"1 59032U 24038K   26262.29631997  .00000999  00000+0  45818-4 0  9996","line2":"2 59032  43.0041   2.7910 0001547 272.5384  87.5291 15.27577722144387","mean_motion":15.27577722,"eccentricity":0.0001547,"inclination_deg":43.0041,"raan_deg":2.791,"arg_perigee_deg":272.5384,"mean_anomaly_deg":87.5291,"bstar":4.5818e-5,"rev_number":14438,"period_min":94.266889288924,"perigee_km":481.99449065535,"apogee_km":484.11734374393,"semimajor_km":6861.1929171996,"source":"CELESTRAK","updated_at":"2026-09-21T09:00:34.029723Z"}}